Flag for U.S.A. Weather past 2 weeks in Memphis, Tennessee, U.S.A.

Now
81 °F

Scattered clouds.


Feels Like: 81 °F
Forecast: 63 / 83 °F
Wind: 17 mph from Southwest

Location: Memphis International Airport

Current Time: Apr 25, 2015 at 5:35:16 PM

Latest Report: Apr 25, 2015 at 4:54 PM


Visibility: 10 mi

Pressure: 29.56 "Hg

Humidity: 45%

Dew point: 58 °F

Location of MemphisLocation

Historic Weather in Memphis — Graph

°F

Memphis temperature yesterday

Maximum temperature yesterday: 66 °F (at 10:54 AM)
Minimum temperature yesterday: 56 °F (at 1:54 AM)
Average temperature yesterday: 59 °F

Past Weeks' High & Low Weather Summary

 TemperatureHumidityPressure
High82 °F (Apr 12, 2:54 PM)94% (Apr 19, 6:54 AM)30.24 "Hg (Apr 19, 6:54 AM)
Low47 °F (Apr 21, 3:54 AM)27% (Apr 11, 4:54 PM)29.55 "Hg (Apr 19, 9:54 PM)
Average65 °F67%29.96 "Hg
* Reported Apr 10 2:54 PM — Apr 25 2:54 PM, Memphis, Weather by CustomWeather, © 2015

Note: Actual official high and low records may vary slightly from our data, if they occured in-between our weather recording intervals... More about our weather records

Advertising

Memphis weather history for previous 24 hours

 ConditionsComfort  
Time TempWeatherWind HumidityBarometerVisibility
2:54 PM
Sat, Apr 25
80 °FScattered clouds.17 mph52%29.57 "Hg10 mi
1:54 PM78 °FScattered clouds.14 mph62%29.60 "Hg10 mi
12:54 PM75 °FPartly sunny.15 mph74%29.62 "Hg10 mi
11:54 AM71 °FOvercast.9 mph84%29.63 "Hg10 mi
10:54 AM69 °FLow clouds.13 mph87%29.64 "Hg10 mi
9:54 AM67 °FLow clouds.13 mph87%29.65 "Hg10 mi
8:54 AM65 °FPartly sunny.16 mph87%29.65 "Hg10 mi
7:54 AM64 °FBroken clouds.14 mph87%29.67 "Hg10 mi
6:54 AM63 °FBroken clouds.10 mph90%29.67 "Hg10 mi
5:54 AM63 °FLow clouds.7 mph90%29.67 "Hg10 mi
4:54 AM63 °FLow clouds.13 mph90%29.66 "Hg10 mi
3:54 AM62 °FPartly cloudy.9 mph90%29.63 "Hg10 mi
2:54 AM62 °FPartly cloudy.13 mph90%29.61 "Hg9 mi
1:54 AM61 °FLight rain. Fog.21 mph93%29.73 "Hg6 mi
12:54 AM59 °FThunderstorms. Fog.17 mph90%29.77 "Hg6 mi
11:54 PM
Fri, Apr 24
58 °FThunderstorms. Overcast.14 mph90%29.79 "Hg7 mi
10:54 PM57 °FLight rain. Mostly cloudy.13 mph90%29.83 "Hg10 mi
9:51 PM57 °FRain. Fog.7 mph90%29.87 "Hg4 mi
8:54 PM56 °FRain. Fog.No wind93%29.89 "Hg4 mi
7:54 PM57 °FHeavy rain. Fog.3 mph90%29.88 "Hg5 mi
5:54 PM58 °FLight rain. Overcast.8 mph84%29.87 "Hg10 mi
Weather by CustomWeather, © 2015

See weather overviewHow to use our weather pages